Flag for Japan Weather past 2 weeks in Fukuoka, Japan

Now
46 °F

Sprinkles. Fog.


Feels Like: 44 °F
Forecast: 45 / 50 °F
Wind: 5 mph from Northwest

Location: Fukuoka Airport

Current Time: Mar 1, 2015 at 8:29:06 AM

Latest Report: Mar 1, 2015 at 8:00 AM


Visibility: 2 mi

Pressure: 29.95 "Hg

Humidity: 93%

Dew point: 45 °F

Location of FukuokaLocation

Historic Weather in Fukuoka — Graph

°F

Fukuoka temperature yesterday

Maximum temperature yesterday: 54 °F (at 1:30 PM)
Minimum temperature yesterday: 37 °F (at 5:00 AM)
Average temperature yesterday: 45 °F

Past Weeks' High & Low Weather Summary

 TemperatureHumidityPressure
High59 °F (Feb 22, 12:00 PM)100% (Feb 23, 1:00 AM)30.33 "Hg (Feb 23, 1:00 AM)
Low32 °F (Feb 14, 7:00 AM)29% (Feb 27, 2:30 AM)29.80 "Hg (Feb 16, 3:00 PM)
Average47 °F67%30.09 "Hg
* Reported Feb 14 7:00 AM — Mar 1 7:00 AM, Fukuoka, Weather by CustomWeather, © 2015

Note: Actual official high and low records may vary slightly from our data, if they occured in-between our weather recording intervals... More about our weather records

Advertising

Fukuoka weather history for previous 24 hours

 ConditionsComfort  
Time TempWeatherWind HumidityBarometerVisibility
7:00 AM
Sun, Mar 1
45 °FSprinkles. Fog.6 mph100%29.92 "Hg2 mi
6:30 AM45 °FSprinkles. Partly cloudy.5 mph100%29.92 "Hg4 mi
6:00 AM45 °FSprinkles. Fog.6 mph100%29.92 "Hg2 mi
5:30 AM45 °FRain showers. Fog.7 mph100%29.92 "Hg2 mi
5:00 AM45 °FLight rain. Fog.6 mph100%29.92 "Hg3 mi
4:30 AM45 °FLight rain. Fog.2 mph100%29.92 "Hg3 mi
4:00 AM45 °FLight rain. Fog.1 mph93%29.95 "Hg2 mi
3:30 AM45 °FLight rain. Fog.No wind93%29.95 "Hg3 mi
3:00 AM45 °FLight rain. Fog.No wind93%29.98 "Hg2 mi
2:30 AM45 °FLight rain. Fog.No wind93%30.01 "Hg2 mi
2:00 AM45 °FLight rain. Fog.1 mph93%30.01 "Hg2 mi
1:30 AM45 °FLight rain. Fog.No wind93%30.04 "Hg2 mi
1:00 AM43 °FLight rain. Fog.1 mph100%30.04 "Hg2 mi
12:30 AM43 °FLight rain. Fog.3 mph100%30.07 "Hg3 mi
12:00 AM45 °FLight rain. Partly cloudy.1 mph87%30.07 "Hg4 mi
11:30 PM
Sat, Feb 28
43 °FLight rain. Partly cloudy.3 mph93%30.07 "Hg4 mi
11:00 PM45 °FLight rain. Partly cloudy.2 mph87%30.07 "Hg5 mi
10:30 PM45 °FLight rain. Partly cloudy.2 mph87%30.09 "Hg5 mi
10:00 PM45 °FLight rain. Partly cloudy.1 mph81%30.09 "Hg5 mi
9:30 PM45 °FLight rain. Partly cloudy.2 mph81%30.09 "HgN/A
9:00 PM46 °FLight rain. Partly cloudy.5 mph76%30.09 "HgN/A
8:30 PM46 °FLight rain. Partly cloudy.3 mph71%30.09 "HgN/A
8:00 PM46 °FLight rain. Partly cloudy.3 mph71%30.12 "HgN/A
7:30 PM46 °FLight rain. Partly cloudy.2 mph66%30.12 "HgN/A
7:00 PM46 °FLight rain. Passing clouds.5 mph66%30.15 "HgN/A
6:30 PM46 °FLight rain. Partly cloudy.7 mph66%30.12 "HgN/A
6:00 PM46 °FLight rain. Broken clouds.5 mph76%30.15 "HgN/A
5:30 PM46 °FLight rain. Broken clouds.6 mph71%30.15 "HgN/A
5:00 PM50 °FLight rain. Broken clouds.8 mph54%30.15 "HgN/A
4:30 PM50 °FBroken clouds.8 mph47%30.15 "HgN/A
4:00 PM50 °FLight rain. Broken clouds.12 mph47%30.15 "HgN/A
3:30 PM50 °FBroken clouds.10 mph47%30.15 "HgN/A
3:00 PM52 °FPartly sunny.10 mph41%30.15 "HgN/A
2:30 PM52 °FPartly sunny.12 mph44%30.18 "HgN/A
2:00 PM54 °FBroken clouds.9 mph38%30.18 "HgN/A
1:30 PM54 °FPassing clouds.10 mph38%30.18 "HgN/A
12:30 PM52 °FPartly sunny.7 mph35%30.24 "HgN/A
12:00 PM50 °FPassing clouds.7 mph37%30.24 "HgN/A
11:30 AM48 °FPassing clouds.9 mph37%30.27 "HgN/A
11:00 AM48 °FPassing clouds.8 mph37%30.30 "HgN/A
10:30 AM46 °FPassing clouds.10 mph40%30.30 "HgN/A
10:00 AM45 °FPassing clouds.7 mph42%30.30 "HgN/A
9:30 AM45 °FPassing clouds.10 mph46%30.30 "HgN/A
9:00 AM45 °FPassing clouds.5 mph42%30.30 "HgN/A
8:30 AM43 °FPassing clouds.7 mph46%30.33 "HgN/A
8:00 AM41 °FPassing clouds.7 mph53%30.30 "HgN/A
Weather by CustomWeather, © 2015

See weather overviewHow to use our weather pages